Flag for Congo Weather past 2 weeks in Pointe-Noire, Congo

Now
81 °F

Broken clouds.


Feels Like: 85 °F
Forecast: 76 / 86 °F
Wind: 9 mph from South

Location: Pointe Airport-Noire

Current Time: May 24, 2015 at 12:38:14 PM

Latest Report: May 24, 2015 at 12:00 PM


Visibility: N/A

Pressure: 29.92 "Hg

Humidity: 79%

Dew point: 73 °F

Location of Pointe-NoireLocation

Historic Weather in Pointe-Noire — Graph

°F

Pointe-Noire temperature yesterday

Maximum temperature yesterday: 84 °F (at 12:00 PM)
Minimum temperature yesterday: 77 °F (at 6:00 AM)
Average temperature yesterday: 81 °F

Past Weeks' High & Low Weather Summary

 TemperatureHumidityPressure
High90 °F (May 10, 1:00 PM)100% (May 17, 7:00 AM)29.98 "Hg (May 17, 7:00 AM)
Low75 °F (May 16, 1:00 AM)22% (May 17, 2:00 AM)29.74 "Hg (May 14, 4:00 PM)
Average82 °F86%29.88 "Hg
* Reported May 9 11:00 AM — May 24 11:00 AM, Pointe-Noire, Weather by CustomWeather, © 2015

Note: Actual official high and low records may vary slightly from our data, if they occured in-between our weather recording intervals... More about our weather records

Advertising

Pointe-Noire weather history for previous 24 hours

 ConditionsComfort  
Time TempWeatherWind HumidityBarometerVisibility
11:00 AM
Sun, May 24
82 °FPartly sunny.7 mph70%29.95 "HgN/A
10:00 AM84 °FScattered clouds.9 mph70%29.95 "HgN/A
9:00 AM81 °FPartly sunny.6 mph84%29.95 "Hg5 mi
8:00 AM79 °FPassing clouds.5 mph89%29.92 "Hg4 mi
7:00 AM75 °FScattered clouds.2 mph100%29.92 "Hg4 mi
6:00 AM75 °FPassing clouds.2 mph100%29.92 "Hg4 mi
5:00 AM77 °FPassing clouds.2 mph94%29.89 "Hg4 mi
4:00 AM77 °FPassing clouds.2 mph94%29.89 "Hg4 mi
2:00 AM77 °FPassing clouds.2 mph94%29.89 "Hg4 mi
1:00 AM79 °FPassing clouds.2 mph89%29.89 "Hg4 mi
12:00 AM79 °FPassing clouds.2 mph89%29.92 "Hg5 mi
11:00 PM
Sat, May 23
79 °FPassing clouds.3 mph89%29.95 "Hg5 mi
10:00 PM79 °FPassing clouds.No wind89%29.95 "Hg5 mi
9:00 PM81 °FPassing clouds.6 mph84%29.89 "Hg5 mi
8:00 PM81 °FPassing clouds.5 mph84%29.89 "Hg5 mi
7:00 PM81 °FPassing clouds.7 mph89%29.86 "Hg5 mi
6:00 PM82 °FScattered clouds.9 mph79%29.86 "Hg5 mi
5:00 PM82 °FScattered clouds.8 mph79%29.83 "HgN/A
4:00 PM84 °FBroken clouds.8 mph79%29.86 "HgN/A
3:00 PM84 °FScattered clouds.10 mph74%29.86 "Hg5 mi
2:00 PM84 °FPartly sunny.8 mph74%29.89 "Hg5 mi
1:00 PM84 °FPartly sunny.10 mph74%29.89 "Hg5 mi
12:00 PM84 °FOvercast.8 mph74%29.92 "Hg5 mi
Weather by CustomWeather, © 2015

See weather overviewHow to use our weather pages